Weather History for KLHW - August, 2013

Change the Weather History Date:

Thursday, August 15, 2013

  Actual Average Record
Temperature  
Mean Temperature 74 °F -  
Max Temperature 78 °F 90 °F 98 °F (1984)
Min Temperature 69 °F 70 °F 63 °F (1983)
Cooling Degree Days 8    
Growing Degree Days 24 (Base 50)    
Moisture  
Dew Point 73 °F    
Average Humidity 99    
Maximum Humidity 100    
Minimum Humidity 94    
Precipitation  
Precipitation 0.45 in - - ()
Sea Level Pressure  
Sea Level Pressure 30.00 in    
Wind  
Wind Speed 5 mph (NE)    
Max Wind Speed 15 mph    
Max Gust Speed -    
Visibility 8 miles    
Events Rain , Thunderstorm    
Averages and records for this station are not official NWS values.
T = Trace of Precipitation, MM = Missing Value Source: NWS Daily Summary

Daily Weather History Graph

Daily Weather History Graph

Search for Another Location

Airport or City:

Trip Planner

Search our weather history database for the weather conditions in past years. The results will help you decide how hot, cold, wet, or windy it might be!

Date:

Astronomy

Aug. 15, 2013 Rise Set
Actual Time 6:51 AM EDT 8:09 PM EDT
Civil Twilight 6:25 AM EDT 8:35 PM EDT
Nautical Twilight 5:54 AM EDT 9:05 PM EDT
Astronomical Twilight 5:22 AM EDT 9:37 PM EDT
Moon 3:19 PM EDT (8/15) 1:04 AM EDT (8/15)
Length of Visible Light 14h 09m
Length of Day
13h 18m
Waxing Gibbous, 64% of the Moon is Illuminated
Aug 15
Waxing Gibbous
Aug 20
Full
Aug 28
Last Quarter
Sep 5
New
Sep 12
First Quarter

Hourly Weather History & Observations

Time (EDT) Temp. Dew Point Humidity Pressure Visibility Wind Dir Wind Speed Gust Speed Precip Events Conditions
12:04 AM 73.4 °F 73.4 °F 100% 30.00 in 7.0 mi SSE 9.2 mph - N/A Rain Heavy Rain
12:09 AM 73.4 °F 73.4 °F 100% 30.00 in 4.0 mi South 9.2 mph - N/A Rain Heavy Rain
12:14 AM 73.4 °F 73.4 °F 100% 29.99 in 4.0 mi SSE 5.8 mph - N/A Rain Rain
12:19 AM 73.4 °F 73.4 °F 100% 29.98 in 5.0 mi Variable 2.3 mph - N/A Rain Light Rain
12:24 AM 73.4 °F 73.4 °F 100% 29.97 in 10.0 mi ENE 5.8 mph - N/A Rain Light Rain
12:28 AM 73.4 °F 73.4 °F 100% 29.97 in 10.0 mi NE 3.5 mph - N/A   Overcast
12:58 AM 73.4 °F 73.4 °F 100% 29.96 in 10.0 mi NW 5.8 mph - 0.08 in   Overcast
12:59 AM 73.4 °F 73.4 °F 100% 29.96 in 10.0 mi WNW 8.1 mph - N/A   Light Drizzle
1:08 AM 73.4 °F 73.4 °F 100% 29.97 in 10.0 mi WNW 10.4 mph - N/A   Overcast
1:13 AM 73.4 °F 73.4 °F 100% 29.97 in 10.0 mi WNW 9.2 mph - N/A Rain Light Rain
1:53 AM 71.6 °F 71.6 °F 100% 29.97 in 9.0 mi ENE 3.5 mph - N/A Rain Rain
1:58 AM 72.1 °F 72.1 °F 100% 29.98 in 8.0 mi East 3.5 mph - 0.03 in Rain Rain
2:08 AM 71.6 °F 71.6 °F 100% 29.96 in 9.0 mi ESE 6.9 mph - N/A Rain Light Rain
2:23 AM 71.6 °F 71.6 °F 100% 29.96 in 10.0 mi SE 5.8 mph - N/A   Mostly Cloudy
2:58 AM 72.1 °F 72.1 °F 100% 29.96 in 10.0 mi SE 1.2 mph - 0.03 in   Scattered Clouds
3:58 AM 71.6 °F 71.6 °F 100% 29.97 in 10.0 mi North 6.9 mph - N/A   Overcast
4:53 AM 71.6 °F 71.6 °F 100% 29.96 in 10.0 mi Calm Calm - N/A   Light Drizzle
4:58 AM 71.1 °F 71.1 °F 100% 29.97 in 10.0 mi Calm Calm - 0.00 in   Light Drizzle
5:16 AM 71.6 °F 71.6 °F 100% 29.96 in 10.0 mi Calm Calm - N/A   Mostly Cloudy
5:18 AM 71.6 °F 71.6 °F 100% 29.96 in 10.0 mi Calm Calm - N/A   Light Drizzle
5:50 AM 71.6 °F 71.6 °F 100% 29.96 in 10.0 mi Calm Calm - N/A   Overcast
5:58 AM 71.4 °F 71.4 °F 100% 29.97 in 10.0 mi Calm Calm - 0.00 in   Overcast
6:58 AM 72.0 °F 72.0 °F 100% 29.99 in 10.0 mi Calm Calm - N/A   Overcast
7:11 AM 71.6 °F 71.6 °F 100% 29.98 in 10.0 mi Calm Calm - N/A Rain Light Rain
7:20 AM 71.6 °F 71.6 °F 100% 29.99 in 10.0 mi Calm Calm - N/A   Mostly Cloudy
7:22 AM 71.6 °F 71.6 °F 100% 29.99 in 10.0 mi Calm Calm - N/A   Light Drizzle
7:33 AM 71.6 °F 71.6 °F 100% 29.99 in 10.0 mi Calm Calm - N/A   Mostly Cloudy
7:35 AM 71.6 °F 71.6 °F 100% 29.99 in 10.0 mi Calm Calm - N/A Rain Light Rain
7:40 AM 73.4 °F 73.4 °F 100% 29.99 in 10.0 mi Calm Calm - N/A Rain Light Rain
7:46 AM 73.4 °F 73.4 °F 100% 29.98 in 2.0 mi Calm Calm - N/A Rain Light Rain
7:55 AM 73.4 °F 73.4 °F 100% 30.00 in 10.0 mi NNE 1.2 mph - N/A Rain Light Rain
7:58 AM 72.7 °F 72.7 °F 100% 30.01 in 2.0 mi Calm Calm - 0.01 in Rain Light Rain
8:00 AM 73.4 °F 73.4 °F 100% 30.00 in 10.0 mi Calm Calm - N/A Rain Light Rain
8:20 AM 73.4 °F 73.4 °F 100% 30.01 in 10.0 mi Calm Calm - N/A Rain Light Rain
8:30 AM 73.4 °F 73.4 °F 100% 30.01 in 10.0 mi Calm Calm - N/A   Mostly Cloudy
8:58 AM 74.1 °F 74.1 °F 100% 30.02 in 10.0 mi Calm Calm - 0.01 in   Overcast
9:28 AM 75.2 °F 75.2 °F 100% 30.01 in 10.0 mi NNE 1.2 mph - N/A   Overcast
9:33 AM 75.2 °F 75.2 °F 100% 30.01 in 10.0 mi NE 2.3 mph - N/A   Overcast
9:48 AM 75.2 °F 75.2 °F 100% 30.01 in 10.0 mi NNE 1.2 mph - N/A   Overcast
9:58 AM 75.6 °F 75.6 °F 100% 30.02 in 10.0 mi NE 2.3 mph - N/A   Overcast
10:18 AM 77.0 °F 77.0 °F 100% 30.01 in 10.0 mi NNE 3.5 mph - N/A   Overcast
10:58 AM 77.9 °F 77.9 °F 100% 30.02 in 10.0 mi NE 6.9 mph - N/A   Overcast
11:08 AM 78.8 °F 78.8 °F 100% 30.01 in 10.0 mi ENE 5.8 mph - N/A   Overcast
11:18 AM 78.8 °F 77.0 °F 94% 30.01 in 10.0 mi NE 6.9 mph - N/A   Overcast
11:48 AM 75.2 °F 73.4 °F 94% 30.02 in 10.0 mi NE 15.0 mph - N/A   Overcast
11:58 AM 73.6 °F 73.6 °F 100% 30.03 in 10.0 mi NE 12.7 mph - N/A   Overcast
12:28 PM 73.4 °F 73.4 °F 100% 30.02 in 10.0 mi North 6.9 mph - N/A   Overcast
12:48 PM 73.4 °F 73.4 °F 100% 30.01 in 10.0 mi ENE 9.2 mph - N/A   Overcast
12:58 PM 73.9 °F 73.6 °F 99% 30.02 in 10.0 mi NE 9.2 mph - N/A   Overcast
1:58 PM 74.8 °F 73.0 °F 94% 30.00 in 10.0 mi NE 8.1 mph - N/A   Overcast
2:18 PM 75.2 °F 73.4 °F 94% 30.00 in 10.0 mi ENE 10.4 mph - N/A   Overcast
2:58 PM 74.7 °F 72.9 °F 94% 30.00 in 10.0 mi NNE 11.5 mph - N/A   Overcast
3:32 PM 75.2 °F 73.4 °F 94% 29.98 in 10.0 mi NE 10.4 mph - N/A   Light Drizzle
3:49 PM 75.2 °F 73.4 °F 94% 29.99 in 10.0 mi NNE 6.9 mph - N/A   Overcast
3:58 PM 74.8 °F 73.4 °F 95% 30.01 in 10.0 mi NE 5.8 mph - 0.00 in   Overcast
4:20 PM 75.2 °F 73.4 °F 94% 30.00 in 10.0 mi ENE 4.6 mph - N/A Rain Light Rain
4:58 PM 73.6 °F 73.6 °F 100% 30.03 in 8.0 mi NNE 2.3 mph - 0.02 in Rain , Thunderstorm Light Rain
5:08 PM 73.4 °F 73.4 °F 100% 30.02 in 5.0 mi North 2.3 mph - N/A Rain , Thunderstorm Rain
5:18 PM 73.4 °F 73.4 °F 100% 30.02 in 3.0 mi North 1.2 mph - N/A Rain Heavy Rain
5:28 PM 73.4 °F 73.4 °F 100% 30.03 in 2.0 mi SW 2.3 mph - N/A Rain Heavy Rain
5:33 PM 73.4 °F 73.4 °F 100% 30.03 in 1.5 mi SW 1.2 mph - N/A Rain Heavy Rain
5:38 PM 73.4 °F 73.4 °F 100% 30.03 in 1.5 mi Calm Calm - N/A Rain Heavy Rain
5:58 PM 73.4 °F 73.4 °F 100% 30.04 in 1.5 mi WNW 6.9 mph - 0.25 in Rain Heavy Rain
6:03 PM 71.6 °F 71.6 °F 100% 30.02 in 0.8 mi NNE 4.6 mph - N/A Rain Heavy Rain
6:13 PM 71.6 °F 71.6 °F 100% 30.03 in 1.2 mi Calm Calm - N/A Rain Heavy Rain
6:23 PM 71.6 °F 71.6 °F 100% 30.01 in 2.0 mi NNE 6.9 mph - N/A Rain Heavy Rain
6:28 PM 71.6 °F 71.6 °F 100% 30.02 in 3.0 mi NNE 8.1 mph - N/A Rain Heavy Rain
6:45 PM 71.6 °F 71.6 °F 100% 30.00 in 2.0 mi NNE 10.4 mph - N/A Rain , Thunderstorm Heavy Thunderstorms and Rain
6:55 PM 71.6 °F 71.6 °F 100% 30.01 in 8.0 mi NNE 5.8 mph - N/A Rain Light Rain
7:12 PM 71.6 °F 71.6 °F 100% 30.01 in 10.0 mi NNE 5.8 mph - N/A Rain Light Rain
7:22 PM 71.6 °F 71.6 °F 100% 30.02 in 10.0 mi North 3.5 mph - N/A Rain Light Rain
7:26 PM 71.6 °F 71.6 °F 100% 30.02 in 10.0 mi NE 3.5 mph - N/A   Overcast
7:31 PM 71.6 °F 71.6 °F 100% 30.02 in 10.0 mi NE 5.8 mph - N/A Rain Light Rain
7:58 PM 70.5 °F 70.5 °F 100% 30.03 in 10.0 mi NE 4.6 mph - 0.02 in Rain Light Rain
8:03 PM 69.8 °F 69.8 °F 100% 30.02 in 10.0 mi ENE 4.6 mph - N/A Rain Light Rain
8:20 PM 69.8 °F 69.8 °F 100% 30.02 in 10.0 mi NE 5.8 mph - N/A   Overcast
8:58 PM 70.2 °F 70.2 °F 100% 30.04 in 10.0 mi NNE 8.1 mph - 0.00 in   Overcast
9:58 PM 70.2 °F 70.2 °F 100% 30.06 in 10.0 mi NNE 4.6 mph - N/A   Overcast
10:58 PM 70.3 °F 70.3 °F 100% 30.07 in 10.0 mi ENE 2.3 mph - N/A   Overcast
11:03 PM 69.8 °F 69.8 °F 100% 30.06 in 9.0 mi ENE 2.3 mph - N/A   Overcast
11:58 PM 70.5 °F 70.5 °F 100% 30.07 in 7.0 mi NNE 5.8 mph - N/A   Overcast